Tracking 27122 objects as of 24-Mar-2023
HD Live streaming from Space Station
objects crossing your sky now

RIDESHARE ADAPTER

Track RIDESHARE ADAPTER now!
10-day predictions


NORAD ID: 47435
Int'l Code: 2021-006Y
Perigee: 512.3 km
Apogee: 532.1 km
Inclination: 97.4 °
Period: 94.9 minutes
Semi major axis: 6893 km
RCS: Unknown
Launch date: January 24, 2021
Source: United States (US)
Launch site: AIR FORCE EASTERN TEST RANGE (AFETR)
Your satellite tracking list
Your tracking list is empty




NASA's NSSDC Master Catalog

Two Line Element Set (TLE):
1 47435U 21006Y   23082.75640217  .00008013  00000-0  40829-3 0  9997
2 47435  97.3981 140.4455 0014310  47.6919 312.5524 15.16950269119579
Source of the keplerian elements: AFSPC